NOAA 16 DEB, 41074

Orbit data source: Space-Track

NOAA 16 DEB, 41074 is space debris in SSO originally from a launch on Thu, 21 Sep 2000 UTC launched from the Air Force Western Test Range (AFWTR). Debris objects in space refer to the collection of defunct objects orbiting the Earth. Examples of debris include non-operational satellites, rocket bodies, and fragments generated from explosions, collisions, or faulty payload assembly.

Loading next visibility...
Identifier
41074, 2000-055AH
Orbit
SSO
Country
Flag of USUS
Related business
Manufacturer
Unknown
Mission
Spacecraft
Bus & Motor
Unknown
Mass
Unknown
Launch date (UTC)
2000-09-21 (26 years ago)
Launch vehicle
Unknown
Launch site
Air Force Western Test Range (AFWTR)
Object type
Payload
Rocket body
Debris
Shape & HBR
Unknown shape, 0.1 m
Radar Cross Section
Small (<0.1 m²)

Expand to show TLE details & history
Last TLE update: 17 hours ago

TLE from 17 hours ago
0 NOAA 16 DEB
1 41074U 00055AH  26133.25210204  .00001063  00000-0  29352-3 0  9991
2 41074  98.8823 324.7204 0082524 316.4543  43.0152 14.47095645548507
Epoch: 2026-05-13T06:03Z
TLE epoch observation values (Epoch: 2026-05-13T06:03:01.616Z)
Latitude
-0.00002°
Longitude
2.94887°
Altitude
695.394 km
Speed
7.531 km/s
True Right ascension
21h 38m 52s
True Declination
0° 00' 00"
Sunlit
Object was in daylight at epoch
Visualization orbit readout
Latitude
Unknown
Longitude
Unknown
Altitude
Unknown
Speed
Unknown
Apparent Right ascension
Unknown
Apparent Declination
Unknown
Sunlit
N/A
Visualization observer readout
Local Sidereal Time
07:20:12
Azimuth
Unknown
Elevation
Unknown
Doppler factor
Unknown
Orbital elements
Apogee altitude
790.959 km
Perigee altitude
673.603 km
Semi-major axis
7,110.418 km
Eccentricity
0.00825
Inclination
98.8823°
RAAN
324.7204°
Arg. of periapsis
316.4543°
True anomaly
43.66521°
Mean anomaly
43.0152°
Eccentric anomaly
43.33971°
Mean motion
3.61993 °/min
Orbital period
99.45 mins
BSTAR
0.00029352
Loading maneuver chart data...
Computing Atmospheric mass density...
Loading historical data...
Loading historical data...
Loading historical data...
Loading historical data...
Loading historical data...
Loading historical data...
Loading historical data...

Documentation

Showing up to 5 results
|